Location: Altmatt
(47.1333°N, 8.7000°E)
Time: 18:15:05
(UTC+00:00)

CZ-4C R/B - Pass Details

Date: 13 July 2020
Orbit: 632 x 1370 km, 63.4° (Epoch: 12 August)

Event Time Altitude Azimuth Distance (km) Brightness Sun altitude
Rises 22:27:13 0° 319° (NW) 3,811 6.7 -19.7°
Reaches altitude 10° 22:29:41 10° 319° (NW) 2,953 5.9 -19.8°
Maximum altitude 22:36:54 81° 233° (SW) 1,251 2.9 -20.1°
Enters shadow 22:41:24 30° 150° (SSE) 2,145 3.7 -20.3°
